• In Spain
  • List of Countries
  • For 7 days
  • Water Temperature
  • Satellite Maps
  • Weather Map
  • Weather Widgets
  • user-avatar
    Login

    Hourly Weather Kavarna

    Today, 23 September, Sunday

    Time Temperature Precipitation Wind Pressure Humidity
    00:00 +21°C° 0 mm 3 mps 762 mmHg 72%
    01:00 +21°C° 0 mm 3 mps 761 mmHg 72%
    02:00 +21°C° 0 mm 3 mps 761 mmHg 72%
    03:00 +20°C° 0 mm 3 mps 762 mmHg 68%
    04:00 +20°C° 0 mm 3 mps 762 mmHg 65%
    05:00 +20°C° 0 mm 3 mps 762 mmHg 62%
    06:00 +20°C° 0 mm 4 mps 762 mmHg 61%
    07:00 +20°C° 0 mm 5 mps 763 mmHg 61%
    08:00 +21°C° 0 mm 5 mps 763 mmHg 61%
    09:00 +21°C° 0 mm 5 mps 763 mmHg 59%
    10:00 +22°C° 0 mm 5 mps 764 mmHg 57%
    11:00 +23°C° 0 mm 5 mps 764 mmHg 55%
    12:00 +25°C° 0 mm 5 mps 764 mmHg 53%
    13:00 +26°C° 0 mm 4 mps 764 mmHg 52%
    14:00 +26°C° 0 mm 4 mps 764 mmHg 50%
    15:00 +26°C° 0 mm 4 mps 763 mmHg 55%
    16:00 +25°C° 0 mm 4 mps 763 mmHg 59%
    17:00 +23°C° 0 mm 4 mps 763 mmHg 64%
    18:00 +22°C° 0 mm 4 mps 763 mmHg 70%
    19:00 +21°C° 0 mm 4 mps 763 mmHg 77%
    20:00 +20°C° 0 mm 4 mps 763 mmHg 84%
    21:00 +20°C° 0 mm 4 mps 763 mmHg 86%
    22:00 +20°C° 0 mm 4 mps 763 mmHg 87%
    23:00 +20°C° 0 mm 4 mps 763 mmHg 89%

    Tomorrow, 24 September, Monday

    Time Temperature Precipitation Wind Pressure Humidity
    00:00 +20°C° 0 mm 4 mps 763 mmHg 90%
    01:00 +20°C° 0 mm 4 mps 762 mmHg 91%
    02:00 +20°C° 0 mm 4 mps 762 mmHg 92%
    03:00 +21°C° 0 mm 5 mps 761 mmHg 93%
    04:00 +21°C° 0 mm 5 mps 761 mmHg 94%
    05:00 +21°C° 0 mm 5 mps 760 mmHg 94%
    06:00 +22°C° 0 mm 5 mps 760 mmHg 89%
    07:00 +23°C° 0 mm 6 mps 760 mmHg 85%
    08:00 +24°C° 0 mm 6 mps 759 mmHg 80%
    09:00 +26°C° 0 mm 6 mps 759 mmHg 70%
    10:00 +28°C° 0 mm 7 mps 758 mmHg 60%
    11:00 +29°C° 0 mm 7 mps 758 mmHg 51%
    12:00 +30°C° 0 mm 7 mps 757 mmHg 47%
    13:00 +32°C° 0 mm 7 mps 757 mmHg 43%
    14:00 +33°C° 0 mm 7 mps 756 mmHg 40%
    15:00 +32°C° 0 mm 6 mps 756 mmHg 41%
    16:00 +30°C° 0 mm 6 mps 756 mmHg 43%
    17:00 +30°C° 0 mm 5 mps 756 mmHg 45%
    18:00 +28°C° 0 mm 7 mps 757 mmHg 48%
    19:00 +26°C° 0 mm 8 mps 758 mmHg 51%
    20:00 +23°C° 0 mm 9 mps 759 mmHg 54%
    21:00 +21°C° 0 mm 10 mps 760 mmHg 57%
    22:00 +18°C° 0 mm 11 mps 761 mmHg 60%
    23:00 +17°C° 0 mm 12 mps 762 mmHg 63%

    Day after tomorrow, 25 September, Tuesday

    Time Temperature Precipitation Wind Pressure Humidity
    00:00 +16°C° 0 mm 11 mps 763 mmHg 64%
    01:00 +14°C° 0 mm 10 mps 763 mmHg 65%
    02:00 +13°C° 0 mm 9 mps 764 mmHg 67%
    03:00 +13°C° 0.1 mm 9 mps 764 mmHg 64%
    04:00 +13°C° 0.1 mm 8 mps 764 mmHg 61%
    05:00 +15°C° 0.1 mm 7 mps 765 mmHg 58%
    06:00 +15°C° 0.1 mm 6 mps 765 mmHg 57%
    07:00 +15°C° 0.1 mm 6 mps 766 mmHg 55%
    08:00 +15°C° 0.1 mm 5 mps 766 mmHg 54%
    09:00 +15°C° 0 mm 5 mps 767 mmHg 52%
    10:00 +16°C° 0 mm 5 mps 767 mmHg 51%
    11:00 +17°C° 0 mm 4 mps 767 mmHg 49%
    12:00 +16°C° 0 mm 5 mps 767 mmHg 47%
    13:00 +16°C° 0 mm 6 mps 767 mmHg 45%
    14:00 +16°C° 0 mm 6 mps 767 mmHg 42%
    15:00 +16°C° 0 mm 7 mps 767 mmHg 40%
    16:00 +16°C° 0 mm 7 mps 767 mmHg 38%
    17:00 +16°C° 0 mm 8 mps 768 mmHg 35%
    18:00 +15°C° 0 mm 8 mps 768 mmHg 40%
    19:00 +13°C° 0 mm 9 mps 769 mmHg 45%
    20:00 +11°C° 0 mm 9 mps 770 mmHg 50%
    21:00 +11°C° 0 mm 9 mps 770 mmHg 49%
    22:00 +11°C° 0 mm 9 mps 771 mmHg 48%
    23:00 +10°C° 0 mm 9 mps 771 mmHg 48%

    26 September, Wednesday

    Time Temperature Precipitation Wind Pressure Humidity
    00:00 +9°C° 0 mm 10 mps 771 mmHg 49%
    01:00 +9°C° 0 mm 10 mps 771 mmHg 50%
    02:00 +8°C° 0 mm 10 mps 772 mmHg 51%
    03:00 +8°C° 0 mm 10 mps 772 mmHg 53%
    04:00 +7°C° 0 mm 10 mps 772 mmHg 56%
    05:00 +7°C° 0 mm 9 mps 772 mmHg 58%
    06:00 +7°C° 0 mm 10 mps 773 mmHg 57%
    07:00 +8°C° 0 mm 10 mps 773 mmHg 56%
    08:00 +8°C° 0 mm 10 mps 773 mmHg 55%
    09:00 +11°C° 0 mm 10 mps 773 mmHg 50%
    10:00 +12°C° 0 mm 10 mps 773 mmHg 45%
    11:00 +13°C° 0 mm 10 mps 773 mmHg 41%
    12:00 +14°C° 0 mm 10 mps 773 mmHg 38%
    13:00 +14°C° 0 mm 10 mps 773 mmHg 36%
    14:00 +16°C° 0 mm 10 mps 772 mmHg 34%
    15:00 +14°C° 0 mm 10 mps 772 mmHg 33%
    16:00 +14°C° 0 mm 10 mps 772 mmHg 32%
    17:00 +13°C° 0 mm 10 mps 772 mmHg 31%
    18:00 +12°C° 0 mm 10 mps 773 mmHg 34%
    19:00 +11°C° 0 mm 9 mps 773 mmHg 38%
    20:00 +10°C° 0 mm 9 mps 773 mmHg 42%
    21:00 +10°C° 0.1 mm 9 mps 773 mmHg 43%
    22:00 +10°C° 0.1 mm 9 mps 773 mmHg 44%
    23:00 +8°C° 0.1 mm 9 mps 773 mmHg 46%

    27 September, Thursday

    Time Temperature Precipitation Wind Pressure Humidity
    00:00 +8°C° 0.1 mm 9 mps 772 mmHg 46%
    01:00 +8°C° 0.1 mm 9 mps 772 mmHg 47%
    02:00 +7°C° 0.1 mm 9 mps 772 mmHg 48%
    03:00 +7°C° 0.1 mm 9 mps 772 mmHg 49%
    04:00 +7°C° 0.1 mm 9 mps 772 mmHg 50%
    05:00 +6°C° 0.1 mm 9 mps 771 mmHg 51%
    06:00 +7°C° 0.1 mm 9 mps 771 mmHg 49%
    07:00 +8°C° 0.1 mm 9 mps 771 mmHg 48%
    08:00 +10°C° 0.1 mm 9 mps 771 mmHg 46%
    09:00 +11°C° 0.1 mm 8 mps 771 mmHg 43%
    10:00 +13°C° 0.1 mm 8 mps 771 mmHg 40%
    11:00 +15°C° 0.1 mm 8 mps 771 mmHg 36%
    12:00 +16°C° 0.1 mm 7 mps 770 mmHg 34%
    13:00 +17°C° 0.1 mm 7 mps 770 mmHg 32%
    14:00 +18°C° 0.1 mm 7 mps 769 mmHg 30%
    15:00 +17°C° 0 mm 7 mps 769 mmHg 30%
    16:00 +17°C° 0 mm 6 mps 769 mmHg 31%
    17:00 +16°C° 0 mm 6 mps 768 mmHg 32%
    18:00 +15°C° 0 mm 6 mps 768 mmHg 37%
    19:00 +14°C° 0 mm 5 mps 768 mmHg 41%
    20:00 +13°C° 0 mm 5 mps 769 mmHg 46%
    21:00 +13°C° 0 mm 5 mps 768 mmHg 48%
    22:00 +13°C° 0 mm 5 mps 768 mmHg 50%
    23:00 +13°C° 0 mm 5 mps 768 mmHg 52%

    28 September, Friday

    Time Temperature Precipitation Wind Pressure Humidity
    00:00 +13°C° 0 mm 5 mps 768 mmHg 51%
    01:00 +12°C° 0 mm 5 mps 768 mmHg 50%
    02:00 +12°C° 0 mm 5 mps 768 mmHg 49%
    03:00 +11°C° 0 mm 6 mps 767 mmHg 47%
    04:00 +11°C° 0 mm 6 mps 767 mmHg 45%
    05:00 +11°C° 0 mm 6 mps 767 mmHg 43%
    06:00 +13°C° 0 mm 6 mps 767 mmHg 40%
    07:00 +14°C° 0 mm 6 mps 767 mmHg 38%
    08:00 +15°C° 0 mm 7 mps 767 mmHg 35%
    09:00 +17°C° 0 mm 7 mps 767 mmHg 36%
    10:00 +19°C° 0 mm 6 mps 767 mmHg 36%
    11:00 +21°C° 0 mm 6 mps 767 mmHg 37%
    12:00 +21°C° 0 mm 6 mps 766 mmHg 38%
    13:00 +22°C° 0 mm 6 mps 766 mmHg 40%
    14:00 +22°C° 0 mm 6 mps 765 mmHg 41%
    15:00 +21°C° 0 mm 6 mps 765 mmHg 45%
    16:00 +21°C° 0 mm 6 mps 764 mmHg 49%
    17:00 +20°C° 0 mm 6 mps 764 mmHg 53%
    18:00 +19°C° 0 mm 6 mps 764 mmHg 57%
    19:00 +17°C° 0 mm 5 mps 764 mmHg 62%
    20:00 +17°C° 0 mm 5 mps 764 mmHg 67%
    21:00 +16°C° 0 mm 5 mps 764 mmHg 69%
    22:00 +16°C° 0 mm 5 mps 763 mmHg 70%
    23:00 +17°C° 0 mm 4 mps 763 mmHg 72%
    Show more